This is the latest recevied weather packets stored in our database for station/object KD9CCP. If no packets are shown the sender has not sent any weather packets the latest 10 day(s).
| Time | Temp. | Humidity | Pressure | Rain* | Wind** | Luminosity | Snow |
|---|---|---|---|---|---|---|---|
| 1777507257 | 4.44° C | 71% | 1017.7 hPa | 0 mm | - | 11 W/m² | - |
| 1777506955 | 4.44° C | 71% | 1017.6 hPa | 0 mm | - | 11 W/m² | - |
| 1777506652 | 4.44° C | 70% | 1017.6 hPa | 0 mm | - | 13 W/m² | - |
| 1777506348 | 4.44° C | 70% | 1017.5 hPa | 0 mm | - | 16 W/m² | - |
| 1777506044 | 4.44° C | 70% | 1017.5 hPa | 0 mm | - | 17 W/m² | - |
| 1777505739 | 4.44° C | 68% | 1017.7 hPa | 0 mm | - | 20 W/m² | - |
| 1777505437 | 4.44° C | 66% | 1017.6 hPa | 0 mm | - | 23 W/m² | - |
| 1777505134 | 5° C | 67% | 1017.5 hPa | 0 mm | - | 24 W/m² | - |
| 1777504831 | 5° C | 68% | 1017.4 hPa | 0 mm | - | 22 W/m² | - |
| 1777504528 | 5° C | 66% | 1017.6 hPa | 0 mm | - | 23 W/m² | - |
| 1777504223 | 5° C | 64% | 1017.1 hPa | 0 mm | - | 23 W/m² | - |
| 1777503919 | 5° C | 64% | 1017.4 hPa | 0 mm | - | 25 W/m² | - |
| 1777503615 | 5° C | 67% | 1017.6 hPa | 0 mm | - | 24 W/m² | - |
| 1777503312 | 5° C | 67% | 1017.4 hPa | 0 mm | - | 24 W/m² | - |
| 1777503009 | 5° C | 68% | 1017.1 hPa | 0 mm | - | 23 W/m² | - |
| 1777502706 | 5° C | 68% | 1017.3 hPa | 0 mm | - | 19 W/m² | - |
| 1777502403 | 5.56° C | 70% | 1017.3 hPa | 0 mm | - | 25 W/m² | - |
| 1777502100 | 5.56° C | 70% | 1017 hPa | 0 mm | - | 31 W/m² | - |
| 1777501797 | 5.56° C | 72% | 1016.9 hPa | 0 mm | - | 41 W/m² | - |
| 1777501494 | 5.56° C | 71% | 1016.9 hPa | 0 mm | - | 23 W/m² | - |
| 1777501191 | 5.56° C | 71% | 1017.1 hPa | 0 mm | - | 20 W/m² | - |
| 1777500889 | 5.56° C | 72% | 1016.9 hPa | 0 mm | - | 29 W/m² | - |
| 1777500586 | 5.56° C | 75% | 1016.6 hPa | 0 mm | - | 42 W/m² | - |
| 1777500283 | 5.56° C | 82% | 1016.7 hPa | 0 mm | - | 23 W/m² | - |
| 1777499979 | 5.56° C | 82% | 1016.6 hPa | 0 mm | - | 13 W/m² | - |
* Rain latest hour (hover to see other rain measurements)
** Current wind speed in m/s (hover to see current wind gust speed)